Regional Weather Roundup
Issued by NWS

Home | Current Version | Previous Version | Text Only | Print | Product List | Glossary Off
Versions: 1 2 3 4 5 6 7 8 9 10 11 12 13 14 15 16 17 18 19 20 21 22 23 24 25 26 27 28 29 30 31 32 33 34 35 36 37 38 39 40 41 42 43 44 45 46 47 48 49 50

000
ASUS43 KMKX 290428
RWRWI

WISCONSIN REGIONAL WEATHER ROUNDUP
NATIONAL WEATHER SERVICE MILWAUKEE/SULLIVAN WI
1100 PM CDT THU MAY 28 2015

NOTE: "FAIR" INDICATES FEW OR NO CLOUDS BELOW 12,000 FEET WITH NO
SIGNIFICANT WEATHER AND/OR OBSTRUCTIONS TO VISIBILITY.

WIZ001-002-006>008-014>016-023>028-290500-
NORTHWEST WISCONSIN

CITY           SKY/WX    TMP DP  RH WIND       PRES   REMARKS
SUPERIOR ARPT  CLOUDY    41  40  97 CALM      29.98F
ASHLAND        PTCLDY    45  45 100 CALM      29.97S
HAYWARD        PTCLDY    70  55  59 S10       29.98R
SIREN          PTCLDY    69  54  58 S7        29.95S
CUMBERLAND     MOCLDY    64  54  68 SE7       29.98S
RICE LAKE      MOCLDY    68  55  63 SE7       30.00R
CHETEK         MOCLDY    67  56  65 SE3       29.99R
LADYSMITH      MOCLDY    68  56  66 SE3       30.03R
EAU CLAIRE     MOCLDY    70  54  56 SE7       29.98R
MENOMONIE      MOCLDY    68  56  64 E3        29.98R
NEW RICHMOND   MOCLDY    67  54  61 SE6       29.97R
OSCEOLA        MOCLDY    68  55  61 SE9       29.97S
$$

WIZ003>005-009-010-017-018-290500-
NORTH CENTRAL WISCONSIN

CITY           SKY/WX    TMP DP  RH WIND       PRES   REMARKS
MANITOWISH WTR PTCLDY    65  56  71 S5        30.02R
ARBOR VITAE    MOCLDY    67  56  67 S9        30.04R
WOODRUFF       MOCLDY    67  56  67 S9        30.04R
RHINELANDER    MOCLDY    66  55  67 S3        30.06R
EAGLE RIVER    MOCLDY    65  53  64 S5        30.04R
LAND O LAKES   PTCLDY    66  54  65 S3        30.04S
PHILLIPS       PTCLDY    65  56  72 S7        30.02S
TOMAHAWK       PTCLDY    60  55  83 CALM      30.05R
MEDFORD        PTCLDY    62  56  81 SE3       30.04R
MERRILL        PTCLDY    67  55  65 S3        30.05S
$$

WIZ029-030-035-036-043>047-290500-
CENTRAL WISCONSIN

CITY           SKY/WX    TMP DP  RH WIND       PRES   REMARKS
WAUSAU         PTCLDY    66  54  65 SE6       30.02S
MOSINEE        PTCLDY    64  54  68 SE3       30.05S
MARSHFIELD     PTCLDY    67  53  61 SE5       30.03R
STEVENS POINT  PTCLDY    64  54  68 SE5       30.04S
WAUPACA        CLEAR     68  57  67 SE6       30.05R
WAUTOMA        CLEAR     68  57  67 CALM      30.04S
WISC RAPIDS    PTCLDY    67  53  61 SE5       30.03S
CAMP DOUGLAS   MOCLDY    63  61  94 S2        30.01S
$$

WIZ011>013-019>022-031-037>040-048>050-290500-
NORTHEAST WISCONSIN

CITY           SKY/WX    TMP DP  RH WIND       PRES   REMARKS
ANTIGO         PTCLDY    60  56  88 S3        30.06S
SHAWANO        CLEAR     69  58  68 S5        30.05S
OCONTO         PTCLDY    66  55  67 S3        30.05S
STURGEON BAY   CLEAR     63  52  67 S12       30.09S
GREEN BAY      CLEAR     68  52  56 S8        30.06S
MANITOWOC      CLEAR     62  54  74 S5        30.08F
APPLETON       PTCLDY    66  50  55 S9        30.06F
CLINTONVILLE   CLEAR     66  55  68 S6        30.05R
OSHKOSH        CLEAR     63  53  70 S6        30.05S
$$

WIZ032>034-041-042-053>061-290500-
SOUTHWEST WISCONSIN

CITY           SKY/WX    TMP DP  RH WIND       PRES   REMARKS
LA CROSSE      CLOUDY    72  55  55 S7        29.98R
SPARTA         MOCLDY    63  55  75 CALM      30.01F
VIROQUA        CLOUDY    68  53  58 S8        30.02S
BOSCOBEL       MOCLDY    61  57  87 CALM      30.01R
PRAIRIE DU CHI MOCLDY    68  54  62 CALM      29.99S
PLATTEVILLE    CLEAR     67  54  62 SE7       30.02S
$$

WIZ056-057-062-063-064-067-068-290500-
SOUTH CENTRAL WISCONSIN

CITY           SKY/WX    TMP DP  RH WIND       PRES   REMARKS
REEDSBURG      PTCLDY    65  56  72 CALM      30.02S
BARABOO/DELLS  PTCLDY    67  53  61 SE6       30.03S
LONE ROCK      PTCLDY    65  58  78 E5        30.02S
MINERAL POINT  PTCLDY    68  50  52 SE6       30.03S
MADISON        MOCLDY    71  55  56 SE10      30.04S
MIDDLETON      PTCLDY    71  54  54 SE8       30.04S
WATERTOWN      PTCLDY   N/A N/A N/A SE5       30.05F
MONROE         FAIR      68  52  56 S7        30.04S
JANESVILLE     PTCLDY    68  54  60 SE7       30.04S
$$

WIZ051-052-058>065-066-070>072-290500-
SOUTHEAST WISCONSIN

CITY           SKY/WX    TMP DP  RH WIND       PRES   REMARKS
MILWAUKEE      PTCLDY    63  53  70 SE8       30.07F
WAUKESHA       PTCLDY    64  52  63 SE8       30.08F
MILWAUKEE/TIMM PTCLDY    68  50  52 SE3       30.08S
RACINE         MOCLDY    61  53  75 SE6       30.09F
BURLINGTON     PTCLDY    62  53  71 SE7       30.07F
KENOSHA        PTCLDY    62  54  74 SE7       30.08F
FOND DU LAC    CLEAR     65  54  67 SE9       30.05F
SHEBOYGAN      CLEAR     57  53  86 CALM      30.08F
WEST BEND      CLEAR     63  52  67 CALM      30.08S
JUNEAU         CLEAR     65  55  67 SE8       30.07S
$$

LSZ147-162-290500-
LAKE SUPERIOR

STATION/POSITION TIME  TEMP    WIND        PRES    WAVE
                       AIR SEA DIR/SP/G            HT/PER
                 (UTC) (F)     (DEG/KT/KT) (MB)    (FT/S)
W MID LAKE BUOY  0350   38 37   70/  4/  6   N/A     2/ 4
DEVILS ISLAND    0400   40      90/  2/  3   N/A
PORT WING        0300   40      30/  7/  8   N/A
SAXON HARBOR     0340   45        CALM       N/A
$$

LMZ867-665-643>646-290500-
LAKE MICHIGAN

STATION/POSITION TIME  TEMP    WIND        PRES    WAVE
                       AIR SEA DIR/SP/G            HT/PER
                 (UTC) (F)     (DEG/KT/KT) (MB)    (FT/S)
CHAMBERS ISLAND  0300   67     160/  7/ 14   N/A
N MID LAKE BUOY  0350   42 37  160/  4/  6   N/A     1
NORTHPORT PIER   0300   60     170/  6/ 10   N/A
SISTER BAY       0318   60     190/ 14/ 17   N/A
ALGOMA LAKESHORE 0338           CALM  /  2   N/A
KEWAUNEE LAKESHO 0300   49     140/  3/  7   N/A
SHEBOYGAN LAKESH 0400   60     190/ 13/ 13   N/A
PORT WASHINGTON  0300   58     200/  2/  5   N/A
ATWATER BUOY     0400   55     160/  6/  8   N/A
MILWAUKEE LAKESH 0400   57     150/  1/  5   N/A
S MID LAKE BUOY  0350   47 38  100/ 10/ 10   N/A     0
KENOSHA   LAKESH 0400   59     160/  8/  9   N/A
$$

TC  - TEMPERATURE IN CELSIUS
VSB - VISIBILITY IN STATUTE MILES
WCI - WIND CHILL INDEX
HX  - HEAT INDEX




USA.gov is the U.S. government's official web portal to all federal, state and local government web resources and services.